Showing default

HULIANWANG DIGUI-35, 64956

Orbit data source: Space-Track

HULIANWANG DIGUI-35, 64956 is a payload satellite owned by Zhongguo Xingwang (CN) in LEO that was launched on Sun, 27 Jul 2025 UTC via a CHANG ZHENG 6A launch vehicle from the Taiyaun Space Center, China (TSC). Payload-class satellites include a variety of spacecraft equipped with specific instruments for various scientific and technological missions. These include communications satellites like Starlink; space stations such as the ISS; scientific satellites like the Hubble; Earth observation satellites from companies like Planet Labs, Umbra, and HawkEye 360; GPS; miniature CubeSats for education and research; and military/defense satellites.

Loading next visibility...
Identifier
64956, 2025-159A
Orbit
LEO
Country
Flag of CNCN / PRC
Related business
Manufacturer
CAST
Mission
Operational Civil Communications
Bus & Motor
XINGWANG C, Unknown motor
Mass
~700 kg wet, ~700 kg dry
Launch date (UTC)
2025-07-27 (1 year ago)
Launch vehicle
CHANG ZHENG 6A
Launch site
Taiyaun Space Center, China (TSC)
Object type
Payload
Rocket body
Debris
Shape & HBR
Box + 2 Pan, 5.0 m
Radar Cross Section
5.935 m², Large (>1 m²)

Expand to show TLE details & history
Last TLE update: 5 hours ago

TLE from 5 hours ago
0 HULIANWANG DIGUI-35
1 64956U 25159A   26265.93522103 -.00000068  00000-0 -19342-3 0  9996
2 64956  86.4902 249.3901 0002397 178.0664 182.0479 13.24404846 56066
Epoch: 2026-09-22T22:26Z
TLE epoch observation values (Epoch: 2026-09-22T22:26:43.096Z)
Latitude
-0.00012°
Longitude
-89.08304°
Altitude
1,172.644 km
Speed
7.266 km/s
True Right ascension
16h 37m 33s
True Declination
0° 00' 00"
Sunlit
Object was in daylight at epoch
Visualization orbit readout
Latitude
Unknown
Longitude
Unknown
Altitude
Unknown
Speed
Unknown
Apparent Right ascension
Unknown
Apparent Declination
Unknown
Sunlit
N/A
Visualization observer readout
Local Sidereal Time
20:12:39
Azimuth
Unknown
Elevation
Unknown
Doppler factor
Unknown
Orbital elements
Apogee altitude
1,166.87 km
Perigee altitude
1,163.254 km
Semi-major axis
7,543.199 km
Eccentricity
0.00024
Inclination
86.4902°
RAAN
249.3901°
Arg. of periapsis
178.0664°
True anomaly
182.04692°
Mean anomaly
182.0479°
Eccentric anomaly
182.04741°
Mean motion
3.31291 °/min
Orbital period
108.67 mins
BSTAR
-0.00019342
Loading maneuver chart data...
Computing Atmospheric mass density...
Loading historical data...
Loading historical data...
Loading historical data...
Loading historical data...
Loading historical data...
Loading historical data...
Loading historical data...

Documentation

Showing up to 5 results
|